Time,TemperatureF,DewpointF,PressureIn,WindDirection,WindDirectionDegrees,WindSpeedMPH,WindSpeedGustMPH,Humidity,HourlyPrecipIn,Conditions,Clouds,dailyrainin,SoftwareType,DateUTC
2013-06-06 00:03:00,64.0,62.0,-100.00,WNW,284,0.0,1.0,94,0.00,,,0.03,,2013-06-06 04:03:00,
2013-06-06 00:10:00,64.0,62.0,-100.00,NNW,335,1.0,2.0,94,0.00,,,0.03,,2013-06-06 04:10:00,
2013-06-06 00:13:00,64.0,62.0,-100.00,WNW,284,0.0,1.0,94,0.00,,,0.03,,2013-06-06 04:13:00,
2013-06-06 00:23:00,64.0,62.0,-100.00,WNW,284,0.0,1.0,94,0.00,,,0.03,,2013-06-06 04:23:00,
2013-06-06 00:33:00,64.0,62.0,-100.00,NW,325,1.0,2.0,94,0.00,,,0.03,,2013-06-06 04:33:00,
2013-06-06 00:42:00,64.0,62.0,-100.00,NNW,335,1.0,2.0,94,0.00,,,0.03,,2013-06-06 04:42:00,
2013-06-06 00:53:00,64.0,62.0,-100.00,NNW,335,1.0,2.0,94,0.00,,,0.03,,2013-06-06 04:53:00,
2013-06-06 01:02:00,64.0,62.0,-100.00,NNW,335,1.0,2.0,94,0.00,,,0.03,,2013-06-06 05:02:00,
2013-06-06 01:32:00,64.0,62.0,-100.00,NE,45,0.0,0.0,94,0.00,,,0.03,,2013-06-06 05:32:00,
2013-06-06 01:42:00,64.0,62.0,-100.00,NE,37,0.0,0.0,95,0.00,,,0.03,,2013-06-06 05:42:00,
2013-06-06 01:52:00,64.0,62.0,-100.00,NE,37,0.0,0.0,95,0.00,,,0.03,,2013-06-06 05:52:00,
2013-06-06 02:02:00,63.0,62.0,-100.00,SSE,148,1.0,2.0,95,0.00,,,0.03,,2013-06-06 06:02:00,
2013-06-06 02:12:00,63.0,62.0,-100.00,SSE,148,1.0,2.0,95,0.00,,,0.03,,2013-06-06 06:12:00,
2013-06-06 02:22:00,63.0,62.0,-100.00,SSE,148,1.0,2.0,95,0.00,,,0.03,,2013-06-06 06:22:00,
2013-06-06 02:33:00,64.0,62.0,-100.00,North,0,0.0,1.0,95,0.00,,,0.03,,2013-06-06 06:33:00,
2013-06-06 02:42:00,63.0,62.0,-100.00,NW,325,1.0,1.0,95,0.00,,,0.03,,2013-06-06 06:42:00,
2013-06-06 02:52:00,63.0,62.0,-100.00,NW,325,1.0,1.0,95,0.00,,,0.03,,2013-06-06 06:52:00,
2013-06-06 03:02:00,63.0,62.0,-100.00,NW,308,0.0,0.0,95,0.00,,,0.03,,2013-06-06 07:02:00,
2013-06-06 03:12:00,63.0,62.0,-100.00,NW,308,0.0,0.0,95,0.00,,,0.03,,2013-06-06 07:12:00,
2013-06-06 03:22:00,63.0,62.0,-100.00,NNW,340,1.0,2.0,95,0.00,,,0.03,,2013-06-06 07:22:00,
2013-06-06 03:32:00,63.0,62.0,-100.00,NNW,340,1.0,2.0,95,0.00,,,0.03,,2013-06-06 07:32:00,
2013-06-06 03:42:00,63.0,62.0,-100.00,NNW,337,0.0,2.0,95,0.00,,,0.03,,2013-06-06 07:42:00,
2013-06-06 03:52:00,63.0,62.0,-100.00,NNW,337,0.0,2.0,95,0.00,,,0.03,,2013-06-06 07:52:00,
2013-06-06 04:02:00,64.0,60.0,-100.00,South,184,2.0,4.0,88,0.00,,,0.03,,2013-06-06 08:02:00,
2013-06-06 04:12:00,64.0,60.0,-100.00,South,184,2.0,4.0,88,0.00,,,0.03,,2013-06-06 08:12:00,
2013-06-06 04:22:00,64.0,60.0,-100.00,South,184,2.0,4.0,88,0.00,,,0.03,,2013-06-06 08:22:00,
2013-06-06 04:32:00,64.0,59.0,-100.00,SSE,165,7.0,9.0,83,0.00,,,0.04,,2013-06-06 08:32:00,
2013-06-06 04:42:00,63.0,59.0,-100.00,SSE,157,7.0,9.0,85,0.01,,,0.04,,2013-06-06 08:42:00,
2013-06-06 04:52:00,63.0,59.0,-100.00,SSE,157,7.0,9.0,85,0.01,,,0.04,,2013-06-06 08:52:00,
2013-06-06 05:02:00,63.0,59.0,-100.00,South,175,7.0,9.0,89,0.09,,,0.04,,2013-06-06 09:02:00,
2013-06-06 05:12:00,63.0,59.0,-100.00,South,175,7.0,9.0,89,0.09,,,0.04,,2013-06-06 09:12:00,
2013-06-06 05:22:00,63.0,59.0,-100.00,South,175,7.0,9.0,89,0.09,,,0.04,,2013-06-06 09:22:00,
2013-06-06 05:33:00,62.0,60.0,-100.00,South,184,6.0,8.0,92,0.18,,,0.09,,2013-06-06 09:33:00,
2013-06-06 05:43:00,62.0,59.0,-100.00,SE,136,2.0,3.0,92,0.04,,,0.11,,2013-06-06 09:43:00,
2013-06-06 05:53:00,62.0,59.0,-100.00,SE,136,2.0,3.0,92,0.04,,,0.11,,2013-06-06 09:53:00,
2013-06-06 06:03:00,61.0,58.0,-100.00,ESE,109,7.0,10.0,90,0.06,,,0.16,,2013-06-06 10:03:00,
2013-06-06 06:12:00,61.0,58.0,-100.00,ESE,109,7.0,10.0,90,0.06,,,0.16,,2013-06-06 10:12:00,
2013-06-06 06:23:00,61.0,58.0,-100.00,ESE,109,7.0,10.0,90,0.06,,,0.16,,2013-06-06 10:23:00,
2013-06-06 06:33:00,60.0,58.0,-100.00,NE,48,2.0,5.0,95,0.40,,,0.27,,2013-06-06 10:33:00,
2013-06-06 06:42:00,60.0,58.0,-100.00,NE,56,2.0,4.0,96,0.34,,,0.38,,2013-06-06 10:42:00,
2013-06-06 06:52:00,60.0,58.0,-100.00,NE,56,2.0,4.0,96,0.34,,,0.38,,2013-06-06 10:52:00,
2013-06-06 07:02:00,60.0,59.0,-100.00,West,277,1.0,3.0,96,0.45,,,0.48,,2013-06-06 11:02:00,
2013-06-06 07:12:00,60.0,59.0,-100.00,West,277,1.0,3.0,96,0.45,,,0.48,,2013-06-06 11:12:00,
2013-06-06 07:23:00,60.0,59.0,-100.00,West,277,1.0,3.0,96,0.45,,,0.48,,2013-06-06 11:23:00,
2013-06-06 07:32:00,59.0,58.0,-100.00,NE,35,2.0,3.0,97,0.35,,,0.61,,2013-06-06 11:32:00,
2013-06-06 07:42:00,59.0,58.0,-100.00,NE,35,2.0,3.0,97,0.35,,,0.61,,2013-06-06 11:42:00,
2013-06-06 07:52:00,59.0,58.0,-100.00,ESE,116,2.0,2.0,97,0.11,,,0.68,,2013-06-06 11:52:00,
2013-06-06 08:03:00,59.0,58.0,-100.00,NE,55,0.0,0.0,97,0.23,,,0.78,,2013-06-06 12:03:00,
2013-06-06 08:13:00,59.0,58.0,-100.00,NE,55,0.0,0.0,97,0.23,,,0.78,,2013-06-06 12:13:00,
2013-06-06 08:23:00,59.0,58.0,-100.00,NE,55,0.0,0.0,97,0.23,,,0.78,,2013-06-06 12:23:00,
2013-06-06 08:33:00,59.0,58.0,-100.00,SSE,160,1.0,2.0,97,0.21,,,0.86,,2013-06-06 12:33:00,
2013-06-06 08:43:00,59.0,58.0,-100.00,SSE,167,4.0,5.0,97,0.31,,,0.96,,2013-06-06 12:43:00,
2013-06-06 08:52:00,59.0,58.0,-100.00,SSE,167,4.0,5.0,97,0.31,,,0.96,,2013-06-06 12:52:00,
2013-06-06 09:03:00,59.0,58.0,-100.00,East,85,2.0,3.0,97,0.35,,,1.02,,2013-06-06 13:03:00,
2013-06-06 09:13:00,59.0,58.0,-100.00,East,85,2.0,3.0,97,0.35,,,1.02,,2013-06-06 13:13:00,
2013-06-06 09:23:00,59.0,58.0,-100.00,East,85,2.0,3.0,97,0.35,,,1.02,,2013-06-06 13:23:00,
2013-06-06 09:33:00,60.0,59.0,-100.00,WNW,302,0.0,1.0,97,0.33,,,1.11,,2013-06-06 13:33:00,
2013-06-06 09:43:00,60.0,59.0,-100.00,NW,325,2.0,2.0,97,0.35,,,1.18,,2013-06-06 13:43:00,
2013-06-06 09:50:00,60.0,59.0,-100.00,WNW,302,2.0,3.0,97,0.16,,,1.37,,2013-06-06 13:50:00,
2013-06-06 09:52:00,60.0,59.0,-100.00,NW,325,2.0,2.0,97,0.35,,,1.18,,2013-06-06 13:52:00,
2013-06-06 10:03:00,60.0,59.0,-100.00,NW,305,0.0,2.0,97,0.30,,,1.29,,2013-06-06 14:03:00,
2013-06-06 10:13:00,60.0,59.0,-100.00,NW,305,0.0,2.0,97,0.30,,,1.29,,2013-06-06 14:13:00,
2013-06-06 10:23:00,60.0,59.0,-100.00,NW,305,0.0,2.0,97,0.30,,,1.29,,2013-06-06 14:23:00,
2013-06-06 10:33:00,60.0,59.0,-100.00,WNW,302,2.0,3.0,97,0.16,,,1.37,,2013-06-06 14:33:00,
2013-06-06 10:43:00,60.0,59.0,-100.00,WNW,302,2.0,3.0,97,0.16,,,1.37,,2013-06-06 14:43:00,
2013-06-06 11:03:00,60.0,59.0,-100.00,NW,312,1.0,2.0,97,0.34,,,1.57,,2013-06-06 15:03:00,
2013-06-06 11:13:00,60.0,59.0,-100.00,NW,312,1.0,2.0,97,0.34,,,1.57,,2013-06-06 15:13:00,
2013-06-06 11:23:00,60.0,59.0,-100.00,NW,312,1.0,2.0,97,0.34,,,1.57,,2013-06-06 15:23:00,
2013-06-06 11:33:00,60.0,60.0,-100.00,WSW,241,1.0,1.0,97,0.30,,,1.66,,2013-06-06 15:33:00,
2013-06-06 11:43:00,61.0,60.0,-100.00,SSE,164,0.0,1.0,97,0.35,,,1.77,,2013-06-06 15:43:00,
2013-06-06 11:53:00,61.0,60.0,-100.00,SSE,164,0.0,1.0,97,0.35,,,1.77,,2013-06-06 15:53:00,
2013-06-06 12:03:00,61.0,60.0,-100.00,NNE,14,1.0,2.0,97,0.18,,,1.87,,2013-06-06 16:03:00,
2013-06-06 12:13:00,61.0,60.0,-100.00,NNE,14,1.0,2.0,97,0.18,,,1.87,,2013-06-06 16:13:00,
2013-06-06 12:23:00,61.0,60.0,-100.00,NNE,14,1.0,2.0,97,0.18,,,1.87,,2013-06-06 16:23:00,
2013-06-06 12:33:00,60.0,60.0,-100.00,NE,48,4.0,4.0,97,0.45,,,1.93,,2013-06-06 16:33:00,
2013-06-06 12:44:00,60.0,60.0,-100.00,NNE,24,2.0,3.0,97,0.21,,,2.03,,2013-06-06 16:44:00,
2013-06-06 12:52:00,60.0,60.0,-100.00,NNE,24,2.0,3.0,97,0.21,,,2.03,,2013-06-06 16:52:00,
2013-06-06 13:03:00,61.0,60.0,-100.00,North,360,1.0,2.0,97,0.10,,,2.04,,2013-06-06 17:03:00,
2013-06-06 13:13:00,61.0,60.0,-100.00,North,360,1.0,2.0,97,0.10,,,2.04,,2013-06-06 17:13:00,
2013-06-06 13:23:00,61.0,60.0,-100.00,North,360,1.0,2.0,97,0.10,,,2.04,,2013-06-06 17:23:00,
2013-06-06 13:33:00,61.0,60.0,-100.00,NNE,27,1.0,2.0,97,0.09,,,2.11,,2013-06-06 17:33:00,
2013-06-06 13:43:00,61.0,60.0,-100.00,NNE,31,1.0,2.0,97,0.26,,,2.17,,2013-06-06 17:43:00,
2013-06-06 13:52:00,61.0,60.0,-100.00,NNE,31,1.0,2.0,97,0.26,,,2.17,,2013-06-06 17:52:00,
2013-06-06 14:03:00,61.0,60.0,-100.00,NE,48,3.0,4.0,97,0.26,,,2.26,,2013-06-06 18:03:00,
2013-06-06 14:13:00,61.0,60.0,-100.00,NE,48,3.0,4.0,97,0.26,,,2.26,,2013-06-06 18:13:00,
2013-06-06 14:23:00,61.0,60.0,-100.00,NE,48,3.0,4.0,97,0.26,,,2.26,,2013-06-06 18:23:00,
2013-06-06 14:33:00,61.0,60.0,-100.00,North,10,3.0,4.0,97,0.27,,,2.35,,2013-06-06 18:33:00,
2013-06-06 14:43:00,61.0,60.0,-100.00,NNE,20,1.0,2.0,97,0.20,,,2.43,,2013-06-06 18:43:00,
2013-06-06 14:53:00,61.0,60.0,-100.00,NNE,20,1.0,2.0,97,0.20,,,2.43,,2013-06-06 18:53:00,
2013-06-06 15:03:00,61.0,60.0,-100.00,NNE,27,4.0,5.0,97,0.35,,,2.53,,2013-06-06 19:03:00,
2013-06-06 15:13:00,61.0,60.0,-100.00,NNE,27,4.0,5.0,97,0.35,,,2.53,,2013-06-06 19:13:00,
2013-06-06 15:23:00,61.0,60.0,-100.00,NNE,27,4.0,5.0,97,0.35,,,2.53,,2013-06-06 19:23:00,
2013-06-06 15:33:00,61.0,60.0,-100.00,NE,38,2.0,3.0,97,0.33,,,2.63,,2013-06-06 19:33:00,
2013-06-06 15:43:00,62.0,61.0,-100.00,NNW,344,1.0,2.0,97,0.03,,,2.69,,2013-06-06 19:43:00,
2013-06-06 15:53:00,62.0,61.0,-100.00,NNW,344,1.0,2.0,97,0.03,,,2.69,,2013-06-06 19:53:00,
2013-06-06 16:03:00,61.0,60.0,-100.00,NE,49,5.0,6.0,97,0.20,,,2.77,,2013-06-06 20:03:00,
2013-06-06 16:13:00,61.0,60.0,-100.00,NE,49,5.0,6.0,97,0.20,,,2.77,,2013-06-06 20:13:00,
2013-06-06 16:23:00,61.0,60.0,-100.00,NE,49,5.0,6.0,97,0.20,,,2.77,,2013-06-06 20:23:00,
2013-06-06 16:33:00,61.0,60.0,-100.00,NE,41,5.0,6.0,97,0.34,,,2.80,,2013-06-06 20:33:00,
2013-06-06 16:43:00,62.0,61.0,-100.00,NNE,24,3.0,4.0,97,0.00,,,2.81,,2013-06-06 20:43:00,
2013-06-06 16:53:00,62.0,61.0,-100.00,NNE,24,3.0,4.0,97,0.00,,,2.81,,2013-06-06 20:53:00,
2013-06-06 17:03:00,61.0,60.0,-100.00,ENE,65,4.0,8.0,97,0.00,,,2.81,,2013-06-06 21:03:00,
2013-06-06 17:13:00,61.0,60.0,-100.00,ENE,65,4.0,8.0,97,0.00,,,2.81,,2013-06-06 21:13:00,
2013-06-06 17:23:00,61.0,60.0,-100.00,ENE,65,4.0,8.0,97,0.00,,,2.81,,2013-06-06 21:23:00,
2013-06-06 17:33:00,62.0,61.0,-100.00,NNE,30,3.0,5.0,97,0.00,,,2.83,,2013-06-06 21:33:00,
2013-06-06 17:44:00,62.0,61.0,-100.00,ENE,62,4.0,6.0,97,0.00,,,2.83,,2013-06-06 21:44:00,
2013-06-06 17:53:00,62.0,61.0,-100.00,ENE,62,4.0,6.0,97,0.00,,,2.83,,2013-06-06 21:53:00,
2013-06-06 18:03:00,62.0,61.0,-100.00,NE,52,5.0,10.0,97,0.00,,,2.83,,2013-06-06 22:03:00,
2013-06-06 18:13:00,62.0,61.0,-100.00,NE,52,5.0,10.0,97,0.00,,,2.83,,2013-06-06 22:13:00,
2013-06-06 18:23:00,62.0,61.0,-100.00,NE,52,5.0,10.0,97,0.00,,,2.83,,2013-06-06 22:23:00,
2013-06-06 18:33:00,62.0,61.0,-100.00,NE,52,5.0,8.0,97,0.00,,,2.83,,2013-06-06 22:33:00,
2013-06-06 18:43:00,62.0,61.0,-100.00,NE,55,4.0,6.0,96,0.00,,,2.83,,2013-06-06 22:43:00,
2013-06-06 18:53:00,62.0,61.0,-100.00,NE,55,4.0,6.0,96,0.00,,,2.83,,2013-06-06 22:53:00,
2013-06-06 19:03:00,62.0,61.0,-100.00,NNE,16,3.0,4.0,96,0.00,,,2.83,,2013-06-06 23:03:00,
2013-06-06 19:13:00,62.0,61.0,-100.00,NNE,16,3.0,4.0,96,0.00,,,2.83,,2013-06-06 23:13:00,
2013-06-06 19:22:00,62.0,61.0,-100.00,NNE,16,3.0,4.0,96,0.00,,,2.83,,2013-06-06 23:22:00,
2013-06-06 19:33:00,62.0,61.0,-100.00,North,356,3.0,4.0,96,0.00,,,2.83,,2013-06-06 23:33:00,
2013-06-06 19:43:00,62.0,61.0,-100.00,North,6,3.0,4.0,96,0.00,,,2.83,,2013-06-06 23:43:00,
2013-06-06 19:52:00,62.0,61.0,-100.00,North,6,3.0,4.0,96,0.00,,,2.83,,2013-06-06 23:52:00,
2013-06-06 20:02:00,62.0,61.0,-100.00,North,1,3.0,5.0,95,0.00,,,2.82,,2013-06-07 00:02:00,
2013-06-06 20:13:00,62.0,61.0,-100.00,North,1,3.0,5.0,95,0.00,,,2.82,,2013-06-07 00:13:00,
2013-06-06 20:22:00,62.0,61.0,-100.00,North,1,3.0,5.0,95,0.00,,,2.82,,2013-06-07 00:22:00,
2013-06-06 20:32:00,62.0,61.0,-100.00,NNE,16,5.0,7.0,96,0.00,,,2.82,,2013-06-07 00:32:00,
2013-06-06 20:42:00,62.0,61.0,-100.00,NE,37,3.0,6.0,96,0.00,,,2.82,,2013-06-07 00:42:00,
2013-06-06 20:52:00,62.0,61.0,-100.00,NE,37,3.0,6.0,96,0.00,,,2.82,,2013-06-07 00:52:00,
2013-06-06 21:03:00,62.0,61.0,-100.00,NNE,30,2.0,4.0,96,0.00,,,2.82,,2013-06-07 01:03:00,
2013-06-06 21:10:00,62.0,61.0,-100.00,NE,34,2.0,2.0,96,0.00,,,2.82,,2013-06-07 01:10:00,
2013-06-06 21:12:00,62.0,61.0,-100.00,NNE,30,2.0,4.0,96,0.00,,,2.82,,2013-06-07 01:12:00,
2013-06-06 21:22:00,62.0,61.0,-100.00,NNE,30,2.0,4.0,96,0.00,,,2.82,,2013-06-07 01:22:00,
2013-06-06 21:32:00,62.0,61.0,-100.00,NE,34,2.0,2.0,96,0.00,,,2.82,,2013-06-07 01:32:00,
2013-06-06 21:42:00,62.0,61.0,-100.00,NE,34,2.0,2.0,96,0.00,,,2.82,,2013-06-07 01:42:00,
2013-06-06 21:52:00,62.0,61.0,-100.00,NE,34,2.0,2.0,96,0.00,,,2.82,,2013-06-07 01:52:00,
2013-06-06 22:02:00,62.0,61.0,-100.00,NE,34,2.0,2.0,96,0.00,,,2.82,,2013-06-07 02:02:00,
2013-06-06 22:32:00,62.0,61.0,-100.00,ENE,59,2.0,3.0,96,0.00,,,2.81,,2013-06-07 02:32:00,
2013-06-06 22:42:00,62.0,61.0,-100.00,NE,40,2.0,3.0,96,0.00,,,2.81,,2013-06-07 02:42:00,
2013-06-06 22:52:00,62.0,61.0,-100.00,NE,40,2.0,3.0,96,0.00,,,2.81,,2013-06-07 02:52:00,
2013-06-06 23:02:00,62.0,61.0,-100.00,ENE,75,2.0,4.0,96,0.00,,,2.80,,2013-06-07 03:02:00,
2013-06-06 23:12:00,62.0,61.0,-100.00,ENE,75,2.0,4.0,96,0.00,,,2.80,,2013-06-07 03:12:00,
2013-06-06 23:22:00,62.0,61.0,-100.00,East,86,2.0,5.0,96,0.00,,,2.80,,2013-06-07 03:22:00,
2013-06-06 23:33:00,62.0,61.0,-100.00,East,86,2.0,5.0,96,0.00,,,2.80,,2013-06-07 03:33:00,
2013-06-06 23:43:00,62.0,61.0,-100.00,East,86,2.0,5.0,96,0.00,,,2.80,,2013-06-07 03:43:00,
2013-06-06 23:53:00,62.0,61.0,-100.00,East,96,2.0,3.0,96,0.00,,,2.80,,2013-06-07 03:53:00,